TimeEST,TemperatureF,Dew PointF,Humidity,Sea Level PressureIn,VisibilityMPH,Wind Direction,Wind SpeedMPH,Gust SpeedMPH,PrecipitationIn,Events,Conditions,WindDirDegrees,DateUTC
12:53 AM,30.9,27.0,85,30.15,6.0,Calm,Calm,-,N/A,,Clear,0,2012-11-08 05:53:00
1:53 AM,30.0,26.1,85,30.15,6.0,Calm,Calm,-,N/A,,Clear,0,2012-11-08 06:53:00
2:53 AM,30.0,26.1,85,30.16,5.0,Calm,Calm,-,N/A,,Clear,0,2012-11-08 07:53:00
3:53 AM,28.9,25.0,85,30.17,4.0,Calm,Calm,-,N/A,,Clear,0,2012-11-08 08:53:00
4:53 AM,28.9,25.0,85,30.18,5.0,Calm,Calm,-,N/A,,Clear,0,2012-11-08 09:53:00
5:53 AM,28.9,25.0,85,30.20,5.0,Calm,Calm,-,N/A,,Clear,0,2012-11-08 10:53:00
6:53 AM,28.0,24.1,85,30.21,5.0,Calm,Calm,-,N/A,,Clear,0,2012-11-08 11:53:00
7:31 AM,28.4,24.8,86,30.20,2.5,Calm,Calm,-,N/A,,Clear,0,2012-11-08 12:31:00
7:39 AM,28.4,24.8,86,30.21,3.0,Calm,Calm,-,N/A,,Clear,0,2012-11-08 12:39:00
7:53 AM,28.9,26.1,89,30.24,3.0,Calm,Calm,-,N/A,,Clear,0,2012-11-08 12:53:00
8:53 AM,36.0,30.9,82,30.24,4.0,Variable,3.5,-,N/A,,Haze,0,2012-11-08 13:53:00
9:53 AM,42.1,32.0,67,30.24,9.0,SW,8.1,-,N/A,,Clear,230,2012-11-08 14:53:00
10:53 AM,45.0,32.0,60,30.24,8.0,West,4.6,-,N/A,,Clear,260,2012-11-08 15:53:00
11:53 AM,48.0,32.0,54,30.23,10.0,Variable,5.8,-,N/A,,Clear,0,2012-11-08 16:53:00
12:53 PM,48.0,33.1,56,30.21,9.0,NW,5.8,-,N/A,,Mostly Cloudy,320,2012-11-08 17:53:00
1:53 PM,48.0,33.1,56,30.19,9.0,WNW,4.6,-,N/A,,Overcast,290,2012-11-08 18:53:00
2:53 PM,48.0,33.1,56,30.19,9.0,West,9.2,-,N/A,,Overcast,280,2012-11-08 19:53:00
3:53 PM,46.9,33.1,59,30.19,9.0,West,6.9,-,N/A,,Overcast,280,2012-11-08 20:53:00
4:53 PM,45.0,33.1,63,30.18,9.0,West,3.5,-,N/A,,Overcast,270,2012-11-08 21:53:00
5:53 PM,43.0,32.0,65,30.18,9.0,Calm,Calm,-,N/A,,Clear,0,2012-11-08 22:53:00
6:53 PM,39.0,30.9,73,30.19,8.0,Calm,Calm,-,N/A,,Clear,0,2012-11-08 23:53:00
7:53 PM,36.0,30.9,82,30.19,7.0,Calm,Calm,-,N/A,,Clear,0,2012-11-09 00:53:00
8:53 PM,35.1,30.0,82,30.19,5.0,Calm,Calm,-,N/A,,Haze,0,2012-11-09 01:53:00
9:53 PM,34.0,28.9,82,30.18,5.0,Calm,Calm,-,N/A,,Haze,0,2012-11-09 02:53:00
10:53 PM,33.1,28.9,85,30.17,5.0,Calm,Calm,-,N/A,,Clear,0,2012-11-09 03:53:00
11:53 PM,32.0,28.9,88,30.17,4.0,Calm,Calm,-,N/A,,Clear,0,2012-11-09 04:53:00